# Land Stadt Wetter Temperatur Luftdruck Luftfeuchtigkeit Sichtweite Windgeschwindigkeit Windrichtung Ortszeit
1 cl Santiago Clouds 13 997 73 10000 6 250 02.08.2018 14:23
2 us Denver Clouds 21 999 31 10000 8 0 02.08.2018 14:21
3 in Nagpur Haze 31 1000 70 4000 4 30 02.08.2018 14:21
4 ae Dubai Clear 30 1001 74 10000 9 190 02.08.2018 14:21
5 nz Wellington Clouds 11 1001 83 10000 4 20 02.08.2018 14:23
6 qa Doha Clear 34 1002 24 10000 15 320 02.08.2018 14:23
7 us Fairbanks Rain 9 1003 84 10000 13 320 02.08.2018 14:23
8 in Mumbai Mist 30 1003 84 3000 17 260 02.08.2018 14:22
9 ru Surgut Clouds 5 1003 100 10000 7 350 02.08.2018 14:23
10 sa Riad Clouds 36 1004 14 10000 18 173 02.08.2018 14:21
11 ru Amderma Clouds -3 1004 89 10000 29 329 02.08.2018 14:23
12 mx Veracruz Clear 35 1004 55 9656 22 100 02.08.2018 14:21
13 us Death Valley Clear 32 1005 18 10000 11 128 02.08.2018 14:22
14 vn Hanoi Clouds 26 1005 93 10000 5 243 02.08.2018 14:21
15 us Las Vegas Clouds 31 1006 17 10000 24 220 02.08.2018 14:21
16 gl Nuuk Clouds 1 1006 80 10000 20 330 02.08.2018 14:22
17 cn Shanghai Clouds 24 1006 94 10000 14 160 02.08.2018 14:21
18 cn Peking Clear 15 1007 50 10000 17 345 02.08.2018 14:23
19 ph Manila Rain 26 1007 96 5000 20 360 02.08.2018 14:21
20 iq Bagdad Clear 23 1007 38 10000 11 350 02.08.2018 14:22
21 cn Lhasa Clouds 13 1008 67 10000 4 27 02.08.2018 14:22
22 th Bangkok Clouds 27 1008 99 10000 9 192 02.08.2018 14:21
23 mv Male Clouds 29 1008 89 10000 19 230 02.08.2018 14:23
24 kr Seoul Clear 19 1009 66 10000 9 210 02.08.2018 14:21
25 is Reykjavik Clouds 11 1009 76 10000 26 130 02.08.2018 14:22
26 ec San Cristobal Clouds 27 1009 69 10000 15 90 02.08.2018 14:22
27 ca Montreal Clouds 20 1010 45 10000 11 240 02.08.2018 14:22
28 us Tucson Clear 32 1010 14 10000 24 260 02.08.2018 14:21
29 ie Dublin Rain 11 1010 88 10000 19 150 02.08.2018 14:21
30 mn Uliastai Clouds 14 1010 23 10000 9 117 02.08.2018 14:23
31 br Manaus Clear 27 1010 83 10000 6 300 02.08.2018 14:21
32 us New York Clouds 24 1011 47 10000 16 143 02.08.2018 14:22
33 id Jakarta Mist 26 1011 93 2000 0 0 02.08.2018 14:22
34 pg Port Moresby Clouds 25 1011 90 10000 9 99 02.08.2018 14:21
35 af Kabul Clear 17 1011 53 10000 4 18 02.08.2018 14:21
36 us Nome Clear 9 1012 57 10000 7 0 02.08.2018 14:23
37 us Chicago Clouds 21 1012 37 10000 15 90 02.08.2018 14:23
38 jp Nagasaki Clouds 22 1012 83 10000 17 140 02.08.2018 14:21
39 do Santo Domingo Rain 29 1012 81 10000 11 180 02.08.2018 14:21
40 gb Manchester Clouds 13 1012 82 10000 6 110 02.08.2018 14:21
41 tr Alanya Clear 18 1012 65 10000 14 303 02.08.2018 14:22
42 sb Honiara Clouds 29 1012 77 10000 9 90 02.08.2018 14:22
43 gr Athen Clouds 22 1012 61 10000 7 340 02.08.2018 14:22
44 cd Kisangani Clouds 22 1013 99 10000 4 285 02.08.2018 14:23
45 de Dresden Clear 13 1013 95 10000 4 0 02.08.2018 14:22
46 tr Ankara Clear 12 1013 94 10000 0 0 02.08.2018 14:23
47 us Miami Clouds 30 1013 69 10000 26 140 02.08.2018 14:23
48 eg Kairo Clear 24 1013 50 10000 6 360 02.08.2018 14:22
49 au Darwin Clear 24 1013 88 10000 6 120 02.08.2018 14:22
50 gb London Clouds 15 1014 74 10000 8 154 02.08.2018 14:22
51 es Palma de Mallorca Clouds 20 1014 80 10000 0 0 02.08.2018 14:22
52 es Sevilla Clear 22 1014 43 10000 11 210 02.08.2018 14:22
53 gb Glasgow Rain 14 1014 75 10000 22 90 02.08.2018 14:21
54 bs Nassau Clouds 28 1014 74 10000 17 50 02.08.2018 14:22
55 in Jagatsukh Clear 9 1015 65 10000 18 19 02.08.2018 14:22
56 et Addis Abeba Clouds 17 1015 46 10000 6 358 02.08.2018 14:23
57 tr Istanbul Clouds 17 1015 81 10000 20 40 02.08.2018 14:23
58 fr Paris Clear 17 1015 68 10000 7 140 02.08.2018 14:22
59 bo Potisi Clear 7 1016 19 10000 7 276 02.08.2018 14:22
60 fj Suva Clouds 23 1016 100 10000 11 190 02.08.2018 14:21
61 fr Bordeaux Clear 18 1016 72 10000 13 270 02.08.2018 14:21
62 ck Avarua Clouds 26 1016 94 10000 2 360 02.08.2018 14:22
63 de Freiburg Clouds 13 1016 83 10000 8 132 02.08.2018 14:22
64 es Tarifa Clouds 19 1017 86 10000 16 88 02.08.2018 14:21
65 ru Werchojansk Clouds 17 1017 32 10000 10 159 02.08.2018 14:22
66 de Braunschweig Clouds 15 1017 90 10000 2 0 02.08.2018 14:21
67 at Wien Clouds 15 1017 87 10000 9 310 02.08.2018 14:22
68 jp Tokio Clouds 21 1017 64 10000 13 110 02.08.2018 14:22
69 fr Nizza Clear 17 1017 78 10000 7 310 02.08.2018 14:22
70 it Rom Clear 17 1017 58 10000 9 50 02.08.2018 14:23
71 it Mailand Clear 16 1017 80 10000 4 0 02.08.2018 14:21
72 de Emden Clear 14 1017 88 10000 8 197 02.08.2018 14:21
73 de Helgoland Clear 15 1017 88 10000 13 159 02.08.2018 14:22
74 ma Marrakesch Clear 22 1017 60 10000 15 40 02.08.2018 14:23
75 es Madrid Clear 20 1018 30 10000 13 260 02.08.2018 14:23
76 ru Jakutsk Clear 11 1018 54 10000 4 60 02.08.2018 14:22
77 at Innsbruck Clouds 13 1018 91 10000 7 260 02.08.2018 14:23
78 de Köln Clear 13 1018 88 10000 6 140 02.08.2018 14:21
79 it Palermo Clear 19 1018 79 10000 3 88 02.08.2018 14:22
80 bg Warna Clouds 15 1018 72 10000 9 10 02.08.2018 14:21
81 de Flensburg Clouds 15 1018 100 4700 17 130 02.08.2018 14:21
82 mn Ulaanbaatar Clear 2 1018 80 10000 0 0 02.08.2018 14:23
83 de Trier Clouds 13 1018 92 10000 4 110 02.08.2018 14:21
84 bg Sofia Clouds 13 1018 88 10000 13 110 02.08.2018 14:21
85 de Berlin Clear 16 1018 89 10000 10 6 02.08.2018 14:21
86 us Los Angeles Clear 20 1018 58 10000 24 270 02.08.2018 14:22
87 de Magdeburg Clouds 16 1018 85 10000 2 98 02.08.2018 14:22
88 de Hamburg Rain 16 1018 89 10000 7 160 02.08.2018 14:21
89 de Stuttgart Clear 13 1018 89 10000 4 300 02.08.2018 14:22
90 us Honolulu Clouds 27 1018 66 10000 30 70 02.08.2018 14:22
91 de Bremen Clear 15 1018 91 10000 7 100 02.08.2018 14:22
92 de Frankfurt Clear 14 1018 89 10000 4 0 02.08.2018 14:22
93 de Kassel Clouds 14 1018 94 10000 2 0 02.08.2018 14:21
94 de Hannover Clouds 15 1019 97 10000 2 0 02.08.2018 14:21
95 de Oberstdorf Clouds 10 1019 93 10000 7 179 02.08.2018 14:21
96 br Rio de Janeiro Drizzle 22 1019 85 9000 15 210 02.08.2018 14:22
97 de Nürnberg Clear 13 1019 89 10000 6 120 02.08.2018 14:21
98 de Torfhaus Clouds 11 1019 95 10000 1 137 02.08.2018 14:22
99 es Barcelona Clear 18 1019 78 10000 7 290 02.08.2018 14:22
100 pt Lissabon Clouds 18 1019 76 10000 15 320 02.08.2018 14:22
101 de Hiddensee Clouds 14 1019 92 10000 13 92 02.08.2018 14:21
102 ch Andermatt Clouds 6 1020 88 10000 4 310 02.08.2018 14:23
103 de München Clouds 11 1020 92 10000 7 226 02.08.2018 14:21
104 ad Andorra la Vella Clouds 16 1020 78 10000 3 52 02.08.2018 14:22
105 ma Casablanca Clouds 20 1021 82 10000 14 340 02.08.2018 14:23
106 mg Antananarivo Clouds 13 1021 100 10000 11 170 02.08.2018 14:21
107 ch Bern Clouds 12 1021 71 10000 2 126 02.08.2018 14:23
108 au Perth Fog 14 1021 86 10000 11 29 02.08.2018 14:21
109 mx Mexiko Stadt Clouds 33 1021 13 10000 11 80 02.08.2018 14:21
110 no Oslo Clouds 18 1022 71 10000 5 48 02.08.2018 14:23
111 se Stockholm Clear 15 1022 86 10000 7 90 02.08.2018 14:23
112 es Las Palmas de Gran Canaria Clouds 20 1022 78 10000 22 350 02.08.2018 14:21
113 ua Kiew Clear 12 1023 55 10000 5 88 02.08.2018 14:21
114 ar Esquel Clouds 2 1024 87 10000 4 58 02.08.2018 14:22
115 ke Nairobi Rain 17 1024 93 10000 7 300 02.08.2018 14:22
116 ar Ushuaia Mist 1 1024 93 2000 4 0 02.08.2018 14:22
117 za Kapstadt Clear 15 1024 88 10000 13 220 02.08.2018 14:22
118 au Alice Springs Clear 7 1024 81 10000 0 0 02.08.2018 14:21
119 ru Moskau Clear 13 1025 67 10000 10 261 02.08.2018 14:22
120 fi Helsinki Clear 15 1025 85 10000 19 260 02.08.2018 14:21
121 au Sydney Clouds 13 1025 87 10000 17 310 02.08.2018 14:22
122 no Hammerfest Clouds 5 1026 81 10000 20 230 02.08.2018 14:22
123 ru Anadyr Clear 4 1028 60 10000 29 360 02.08.2018 14:23
124 pe Cusco Clear 16 1029 31 10000 11 280 02.08.2018 14:23
125 uy Montevideo Clouds 10 1029 81 10000 10 195 02.08.2018 14:22
126 fi Rovaniemi Clear 9 1029 46 10000 9 160 02.08.2018 14:21
127 ar Buenos Aires Clear 9 1030 56 10000 29 225 02.08.2018 14:22
128 bo La Paz Clouds 15 1036 18 10000 20 300 02.08.2018 14:22